Lid_Strength_Index
1 1 2 1 1 2 2 1 1 1 1 1 1 1 1 1 1 2 2 1 1 2 2 2 2 2 2 2 2 2 2 3 4 3 2 1 2 1 2 3 3 4 4
1 1 1 1 1 2 2 1 1 2 1 1 1 1 1 1 2 2 1 1 2 2 1 2 2 1 2 2 2 2 2 2 3 4 3 3 2 1 2 3 2 2 3
1 1 1 1 1 2 2 1 1 1 1 1 2 2 1 1 1 1 1 2 2 2 1 2 1 2 2 2 2 3 2 1 3 3 3 2 2 2 1 3 5 5 3
1 2 2 2 1 1 1 1 1 1 1 1 1 1 1 1 1 1 1 2 1 1 1 1 1 2 2 2 2 2 2 2 3 3 3 3 2 2 2 4 6 5 4
2 2 2 1 1 1 1 1 1 1 1 1 1 1 1 1 0 1 1 2 2 1 1 1 1 1 2 2 1 2 2 3 3 3 3 3 3 3 3 2 4 5 6
2 2 2 1 1 1 1 1 1 1 1 1 1 1 1 1 3 3 2 2 2 2 2 2 1 1 2 2 2 3 2 3 3 3 3 4 3 3 2 2 3 3 4
2 2 2 2 2 1 1 1 1 1 1 1 1 1 2 2 5 5 4 2 2 1 2 1 1 2 3 2 3 3 3 3 2 2 3 3 3 4 4 3 2 3 4
4 4 3 2 2 2 1 1 1 1 2 1 2 2 2 5 7 6 5 4 3 2 2 2 3 5 6 5 3 2 2 5 5 3 4 6 6 6 5 3 2 4 6
3 3 2 2 2 2 2 2 2 3 3 3 3 3 5 6 7 6 5 3 4 5 5 5 5 5 7 5 2 2 5 7 6 6 6 6 6 6 6 5 5 3 4
3 3 2 2 2 2 2 3 2 2 3 4 5 5 6 6 7 6 5 3 5 6 7 7 7 7 8 6 3 2 3 6 6 7 7 7 7 7 6 8 7 5 7
2 2 3 2 2 2 2 2 3 4 5 6 6 6 6 6 7 7 6 4 5 7 7 7 7 8 9 8 6 4 3 3 4 7 8 7 6 6 7 7 8 8 8
2 3 3 2 2 2 3 3 3 4 5 6 6 6 6 6 8 9 8 6 6 6 8 7 8 10 10 9 7 7 6 5 5 6 6 6 6 7 6 6 6 7 7
3 3 3 3 3 3 4 4 5 5 5 6 6 6 6 6 7 9 8 8 7 7 6 7 8 9 9 8 7 6 6 6 6 5 5 5 6 6 7 8 8 8 8
3 3 3 3 4 4 4 4 5 5 5 6 6 6 6 6 6 6 7 7 7 6 6 7 7 7 7 7 8 7 7 7 6 8 9 8 7 8 8 8 9 8 9
3 4 5 5 6 8 10 8 8 10 7 5 6 6 7 8 9 11 8 6 6 7 6 6 7 7 8 7 7 7 7 8 8 8 8 9 9 8 8 8 9 8 8
4 4 5 5 7 7 9 11 12 13 12 11 11 9 11 12 14 13 13 11 10 9 5 6 7 7 7 7 6 6 6 6 7 7 6 6 9 8 9 8 7 7 7
5 5 5 6 6 7 7 8 11 12 13 14 14 14 13 13 13 12 12 11 10 8 6 5 6 6 7 7 6 6 7 7 7 8 8 8 8 8 8 8 8 8 8
4 6 5 5 5 6 6 7 9 10 11 11 13 12 13 13 13 13 11 9 7 7 6 5 5 6 6 6 6 6 7 7 8 8 9 9 9 9 9 10 10 9 8
3 3 3 3 4 5 6 7 8 10 10 9 9 10 12 13 13 13 12 7 5 6 6 5 4 5 5 6 6 7 8 8 8 9 9 9 9 9 10 10 10 8 9
3 3 3 4 5 5 6 6 7 7 8 7 7 7 8 7 7 8 10 10 9 7 7 6 4 4 4 5 6 7 8 8 9 9 10 10 10 10 10 11 10 11 10
4 5 4 6 5 5 5 5 5 6 7 6 6 6 7 6 7 8 8 8 8 6 5 4 4 4 5 6 6 6 7 8 9 9 10 10 10 10 10 10 11 10 10
6 6 6 7 7 6 6 6 5 4 4 5 5 6 8 6 6 6 6 6 6 6 4 4 4 4 5 5 6 6 7 7 8 9 9 10 10 10 10 10 10 9 9
7 7 7 8 7 7 7 8 7 6 6 6 6 6 7 7 7 7 6 6 6 5 5 4 4 5 5 5 5 5 6 6 8 8 8 9 9 9 9 8 8 8 8
4 4 4 5 4 6 6 6 6 7 6 6 6 6 7 7 6 6 6 6 5 5 5 4 4 4 4 5 5 6 7 8 8 7 7 8 8 8 8 7 7 7 8
4 4 4 6 6 7 7 7 7 6 6 6 6 6 6 6 6 5 5 5 5 5 5 4 4 4 4 5 6 7 9 9 8 8 6 6 6 6 6 6 6 6 6
6 6 6 7 7 7 7 7 7 7 7 7 7 7 6 6 6 6 5 5 5 6 5 5 5 5 5 6 6 8 12 10 7 8 6 6 6 6 6 6 6 6 6